Time,TemperatureF,DewpointF,PressureIn,WindDirection,WindDirectionDegrees,WindSpeedMPH,WindSpeedGustMPH,Humidity,HourlyPrecipIn,Conditions,Clouds,dailyrainin,SoftwareType,DateUTC
2013-08-12 00:02:00,55.0,53.0,29.99,NNE,27,0.0,0.0,91,0.00,,,0.00,weatherlink.com 1.10,2013-08-12 04:02:00,
2013-08-12 00:17:00,54.4,53.0,29.99,NNE,27,0.0,1.0,94,0.00,,,0.00,weatherlink.com 1.10,2013-08-12 04:17:00,
2013-08-12 00:32:00,53.9,52.0,29.99,NNE,27,0.0,2.0,94,0.00,,,0.00,weatherlink.com 1.10,2013-08-12 04:32:00,
2013-08-12 00:47:00,53.6,52.0,29.99,NNE,27,0.0,1.0,95,0.00,,,0.00,weatherlink.com 1.10,2013-08-12 04:47:00,
2013-08-12 01:02:00,53.5,52.0,29.99,NNE,27,0.0,0.0,95,0.00,,,0.00,weatherlink.com 1.10,2013-08-12 05:02:00,
2013-08-12 01:17:00,53.4,52.0,29.99,NNE,27,0.0,0.0,95,0.00,,,0.00,weatherlink.com 1.10,2013-08-12 05:17:00,
2013-08-12 01:32:00,54.2,53.0,29.99,NNE,27,0.0,0.0,95,0.00,,,0.00,weatherlink.com 1.10,2013-08-12 05:32:00,
2013-08-12 01:47:00,55.2,54.0,29.99,NNE,30,0.0,2.0,94,0.00,,,0.00,weatherlink.com 1.10,2013-08-12 05:47:00,
2013-08-12 02:02:00,55.7,53.0,29.98,NNE,30,0.0,2.0,91,0.00,,,0.00,weatherlink.com 1.10,2013-08-12 06:02:00,
2013-08-12 02:17:00,55.7,53.0,29.98,NE,34,0.0,2.0,89,0.00,,,0.00,weatherlink.com 1.10,2013-08-12 06:17:00,
2013-08-12 02:32:00,56.2,52.0,29.98,NE,55,0.0,5.0,87,0.00,,,0.00,weatherlink.com 1.10,2013-08-12 06:32:00,
2013-08-12 02:47:00,56.3,52.0,29.98,NNE,26,2.0,5.0,86,0.00,,,0.00,weatherlink.com 1.10,2013-08-12 06:47:00,
2013-08-12 03:02:00,58.4,53.0,29.97,North,11,1.0,4.0,81,0.00,,,0.00,weatherlink.com 1.10,2013-08-12 07:02:00,
2013-08-12 03:17:00,58.0,52.0,29.97,North,11,0.0,3.0,80,0.00,,,0.00,weatherlink.com 1.10,2013-08-12 07:17:00,
2013-08-12 03:32:00,58.4,53.0,29.97,ENE,57,1.0,4.0,82,0.00,,,0.00,weatherlink.com 1.10,2013-08-12 07:32:00,
2013-08-12 03:47:00,58.6,53.0,29.97,NNE,22,4.0,4.0,82,0.00,,,0.00,weatherlink.com 1.10,2013-08-12 07:47:00,
2013-08-12 04:02:00,57.7,53.0,29.97,NNE,24,1.0,4.0,84,0.00,,,0.00,weatherlink.com 1.10,2013-08-12 08:02:00,
2013-08-12 04:17:00,57.5,53.0,29.96,NE,34,3.0,5.0,84,0.00,,,0.00,weatherlink.com 1.10,2013-08-12 08:17:00,
2013-08-12 04:32:00,57.1,53.0,29.96,East,91,0.0,2.0,86,0.00,,,0.00,weatherlink.com 1.10,2013-08-12 08:32:00,
2013-08-12 04:47:00,56.0,53.0,29.96,East,91,1.0,3.0,89,0.00,,,0.00,weatherlink.com 1.10,2013-08-12 08:47:00,
2013-08-12 05:02:00,55.3,53.0,29.96,East,91,0.0,2.0,90,0.00,,,0.00,weatherlink.com 1.10,2013-08-12 09:02:00,
2013-08-12 05:17:00,54.2,52.0,29.96,East,91,0.0,2.0,91,0.00,,,0.00,weatherlink.com 1.10,2013-08-12 09:17:00,
2013-08-12 05:32:00,53.4,52.0,29.96,East,91,1.0,1.0,93,0.00,,,0.00,weatherlink.com 1.10,2013-08-12 09:32:00,
2013-08-12 05:47:00,53.1,52.0,29.97,East,91,0.0,1.0,94,0.00,,,0.00,weatherlink.com 1.10,2013-08-12 09:47:00,
2013-08-12 06:02:00,53.0,52.0,29.97,East,91,0.0,0.0,95,0.00,,,0.00,weatherlink.com 1.10,2013-08-12 10:02:00,
2013-08-12 06:17:00,53.1,52.0,29.97,East,91,0.0,0.0,95,0.00,,,0.00,weatherlink.com 1.10,2013-08-12 10:17:00,
2013-08-12 06:32:00,53.2,52.0,29.97,East,91,0.0,0.0,96,0.00,,,0.00,weatherlink.com 1.10,2013-08-12 10:32:00,
2013-08-12 06:47:00,53.4,52.0,29.97,East,91,0.0,0.0,96,0.00,,,0.00,weatherlink.com 1.10,2013-08-12 10:47:00,
2013-08-12 07:02:00,54.0,53.0,29.97,East,91,0.0,0.0,96,0.00,,,0.00,weatherlink.com 1.10,2013-08-12 11:02:00,
2013-08-12 07:17:00,55.0,54.0,29.96,East,91,0.0,0.0,95,0.00,,,0.00,weatherlink.com 1.10,2013-08-12 11:17:00,
2013-08-12 07:32:00,56.3,55.0,29.96,East,91,1.0,1.0,94,0.00,,,0.00,weatherlink.com 1.10,2013-08-12 11:32:00,
2013-08-12 07:47:00,57.8,55.0,29.96,East,91,0.0,2.0,90,0.00,,,0.00,weatherlink.com 1.10,2013-08-12 11:47:00,
2013-08-12 08:02:00,58.7,56.0,29.96,East,91,0.0,0.0,89,0.00,,,0.00,weatherlink.com 1.10,2013-08-12 12:02:00,
2013-08-12 08:17:00,60.3,53.0,29.96,North,355,2.0,4.0,78,0.00,,,0.00,weatherlink.com 1.10,2013-08-12 12:17:00,
2013-08-12 08:32:00,60.9,54.0,29.97,NNE,21,0.0,4.0,79,0.00,,,0.00,weatherlink.com 1.10,2013-08-12 12:32:00,
2013-08-12 08:47:00,61.5,55.0,29.96,North,5,3.0,4.0,78,0.00,,,0.00,weatherlink.com 1.10,2013-08-12 12:47:00,
2013-08-12 09:02:00,62.3,52.0,29.96,North,350,1.0,4.0,70,0.00,,,0.00,weatherlink.com 1.10,2013-08-12 13:02:00,
2013-08-12 09:17:00,63.2,52.0,29.95,NW,317,2.0,5.0,66,0.00,,,0.00,weatherlink.com 1.10,2013-08-12 13:17:00,
2013-08-12 09:32:00,64.3,53.0,29.95,NNW,340,4.0,6.0,67,0.00,,,0.00,weatherlink.com 1.10,2013-08-12 13:32:00,
2013-08-12 09:47:00,64.7,54.0,29.95,North,5,0.0,5.0,68,0.00,,,0.00,weatherlink.com 1.10,2013-08-12 13:47:00,
2013-08-12 10:02:00,65.5,54.0,29.95,NNW,335,4.0,7.0,66,0.00,,,0.00,weatherlink.com 1.10,2013-08-12 14:02:00,
2013-08-12 10:17:00,65.5,54.0,29.95,NNW,331,5.0,6.0,66,0.00,,,0.00,weatherlink.com 1.10,2013-08-12 14:17:00,
2013-08-12 10:32:00,66.2,56.0,29.95,NW,308,2.0,8.0,69,0.00,,,0.00,weatherlink.com 1.10,2013-08-12 14:32:00,
2013-08-12 10:47:00,65.9,55.0,29.94,North,10,1.0,7.0,68,0.00,,,0.00,weatherlink.com 1.10,2013-08-12 14:47:00,
2013-08-12 11:02:00,66.8,54.0,29.94,ESE,105,1.0,5.0,64,0.00,,,0.00,weatherlink.com 1.10,2013-08-12 15:02:00,
2013-08-12 11:17:00,67.4,55.0,29.93,North,355,3.0,7.0,65,0.00,,,0.00,weatherlink.com 1.10,2013-08-12 15:17:00,
2013-08-12 11:32:00,67.9,56.0,29.93,NE,41,1.0,8.0,66,0.00,,,0.00,weatherlink.com 1.10,2013-08-12 15:32:00,
2013-08-12 11:47:00,68.4,55.0,29.93,NE,49,1.0,7.0,63,0.00,,,0.00,weatherlink.com 1.10,2013-08-12 15:47:00,
2013-08-12 12:02:00,69.3,58.0,29.92,NNW,343,4.0,9.0,67,0.00,,,0.00,weatherlink.com 1.10,2013-08-12 16:02:00,
2013-08-12 12:17:00,69.2,55.0,29.92,NNE,17,3.0,9.0,62,0.00,,,0.00,weatherlink.com 1.10,2013-08-12 16:17:00,
2013-08-12 12:32:00,70.0,56.0,29.92,NNE,31,2.0,9.0,61,0.00,,,0.00,weatherlink.com 1.10,2013-08-12 16:32:00,
2013-08-12 12:47:00,68.9,55.0,29.91,NE,53,3.0,6.0,62,0.00,,,0.00,weatherlink.com 1.10,2013-08-12 16:47:00,
2013-08-12 13:02:00,68.6,55.0,29.91,North,360,1.0,6.0,62,0.00,,,0.00,weatherlink.com 1.10,2013-08-12 17:02:00,
2013-08-12 13:17:00,70.3,60.0,29.91,SSW,211,2.0,6.0,69,0.00,,,0.00,weatherlink.com 1.10,2013-08-12 17:17:00,
2013-08-12 13:32:00,68.9,60.0,29.91,South,190,3.0,7.0,72,0.00,,,0.00,weatherlink.com 1.10,2013-08-12 17:32:00,
2013-08-12 13:47:00,67.9,60.0,29.91,South,188,6.0,6.0,77,0.00,,,0.00,weatherlink.com 1.10,2013-08-12 17:47:00,
2013-08-12 14:02:00,68.3,60.0,29.91,South,177,3.0,8.0,74,0.00,,,0.00,weatherlink.com 1.10,2013-08-12 18:02:00,
2013-08-12 14:17:00,68.5,60.0,29.90,South,175,3.0,8.0,75,0.00,,,0.00,weatherlink.com 1.10,2013-08-12 18:17:00,
2013-08-12 14:32:00,70.6,60.0,29.90,South,176,4.0,7.0,68,0.00,,,0.00,weatherlink.com 1.10,2013-08-12 18:32:00,
2013-08-12 14:47:00,68.6,59.0,29.90,South,175,3.0,5.0,72,0.00,,,0.00,weatherlink.com 1.10,2013-08-12 18:47:00,
2013-08-12 15:02:00,68.4,60.0,29.89,SSW,208,0.0,5.0,75,0.00,,,0.00,weatherlink.com 1.10,2013-08-12 19:02:00,
2013-08-12 15:18:00,68.7,60.0,29.89,SSW,213,5.0,6.0,73,0.00,,,0.00,weatherlink.com 1.10,2013-08-12 19:18:00,
2013-08-12 15:32:00,69.4,60.0,29.89,South,191,0.0,5.0,72,0.00,,,0.00,weatherlink.com 1.10,2013-08-12 19:32:00,
2013-08-12 15:48:00,70.4,61.0,29.88,South,173,4.0,6.0,72,0.00,,,0.00,weatherlink.com 1.10,2013-08-12 19:48:00,
2013-08-12 16:03:00,71.5,60.0,29.88,ENE,57,4.0,7.0,67,0.00,,,0.00,weatherlink.com 1.10,2013-08-12 20:03:00,
2013-08-12 16:18:00,71.0,60.0,29.88,SSW,208,2.0,7.0,69,0.00,,,0.00,weatherlink.com 1.10,2013-08-12 20:18:00,
2013-08-12 16:33:00,68.8,61.0,29.88,SSW,211,1.0,4.0,76,0.00,,,0.00,weatherlink.com 1.10,2013-08-12 20:33:00,
2013-08-12 16:48:00,68.3,60.0,29.87,SSW,211,0.0,3.0,75,0.00,,,0.00,weatherlink.com 1.10,2013-08-12 20:48:00,
2013-08-12 17:03:00,68.4,61.0,29.88,SSW,211,1.0,3.0,77,0.00,,,0.00,weatherlink.com 1.10,2013-08-12 21:03:00,
2013-08-12 17:18:00,69.0,62.0,29.87,SSW,211,2.0,4.0,78,0.00,,,0.00,weatherlink.com 1.10,2013-08-12 21:18:00,
2013-08-12 17:33:00,69.2,61.0,29.87,SSW,210,0.0,3.0,74,0.00,,,0.00,weatherlink.com 1.10,2013-08-12 21:33:00,
2013-08-12 17:48:00,69.3,60.0,29.86,SSW,210,0.0,2.0,73,0.00,,,0.00,weatherlink.com 1.10,2013-08-12 21:48:00,
2013-08-12 18:03:00,71.1,62.0,29.86,SSW,213,2.0,4.0,72,0.00,,,0.00,weatherlink.com 1.10,2013-08-12 22:03:00,
2013-08-12 18:18:00,69.9,61.0,29.86,South,188,0.0,2.0,74,0.00,,,0.00,weatherlink.com 1.10,2013-08-12 22:18:00,
2013-08-12 18:33:00,68.1,61.0,29.86,South,188,0.0,2.0,79,0.00,,,0.00,weatherlink.com 1.10,2013-08-12 22:33:00,
2013-08-12 18:48:00,67.5,62.0,29.86,South,188,0.0,0.0,83,0.00,,,0.00,weatherlink.com 1.10,2013-08-12 22:48:00,
2013-08-12 19:03:00,66.3,61.0,29.85,South,188,0.0,0.0,82,0.00,,,0.00,weatherlink.com 1.10,2013-08-12 23:03:00,
2013-08-12 19:18:00,64.6,60.0,29.86,South,188,0.0,1.0,84,0.00,,,0.00,weatherlink.com 1.10,2013-08-12 23:18:00,
2013-08-12 19:33:00,64.1,60.0,29.86,South,188,0.0,2.0,86,0.00,,,0.00,weatherlink.com 1.10,2013-08-12 23:33:00,
2013-08-12 19:48:00,63.0,59.0,29.85,South,188,0.0,0.0,87,0.00,,,0.00,weatherlink.com 1.10,2013-08-12 23:48:00,
2013-08-12 20:03:00,61.8,59.0,29.86,South,188,0.0,0.0,89,0.00,,,0.00,weatherlink.com 1.10,2013-08-13 00:03:00,
2013-08-12 20:18:00,61.1,59.0,29.85,South,188,0.0,0.0,91,0.00,,,0.00,weatherlink.com 1.10,2013-08-13 00:18:00,
2013-08-12 20:33:00,60.4,58.0,29.85,South,188,0.0,0.0,92,0.00,,,0.00,weatherlink.com 1.10,2013-08-13 00:33:00,
2013-08-12 20:48:00,59.8,58.0,29.86,South,188,0.0,0.0,92,0.00,,,0.00,weatherlink.com 1.10,2013-08-13 00:48:00,
2013-08-12 21:03:00,59.8,58.0,29.86,South,188,0.0,2.0,93,0.00,,,0.00,weatherlink.com 1.10,2013-08-13 01:03:00,
2013-08-12 21:18:00,59.9,58.0,29.86,South,188,0.0,2.0,92,0.00,,,0.00,weatherlink.com 1.10,2013-08-13 01:18:00,
2013-08-12 21:33:00,59.8,57.0,29.86,South,188,0.0,2.0,91,0.00,,,0.00,weatherlink.com 1.10,2013-08-13 01:33:00,
2013-08-12 21:48:00,59.1,57.0,29.86,South,188,0.0,0.0,91,0.00,,,0.00,weatherlink.com 1.10,2013-08-13 01:48:00,
2013-08-12 22:03:00,58.4,56.0,29.86,South,188,0.0,0.0,93,0.00,,,0.00,weatherlink.com 1.10,2013-08-13 02:03:00,
2013-08-12 22:19:00,58.5,57.0,29.86,South,188,0.0,0.0,94,0.00,,,0.00,weatherlink.com 1.10,2013-08-13 02:19:00,
2013-08-12 22:34:00,58.9,57.0,29.85,South,188,0.0,0.0,94,0.00,,,0.00,weatherlink.com 1.10,2013-08-13 02:34:00,
2013-08-12 22:49:00,59.3,58.0,29.85,South,188,0.0,0.0,94,0.00,,,0.00,weatherlink.com 1.10,2013-08-13 02:49:00,
2013-08-12 23:04:00,59.5,57.0,29.85,South,188,0.0,0.0,92,0.00,,,0.00,weatherlink.com 1.10,2013-08-13 03:04:00,
2013-08-12 23:19:00,59.4,57.0,29.86,South,188,0.0,0.0,93,0.00,,,0.00,weatherlink.com 1.10,2013-08-13 03:19:00,
2013-08-12 23:34:00,59.3,57.0,29.85,South,188,0.0,0.0,93,0.00,,,0.00,weatherlink.com 1.10,2013-08-13 03:34:00,
2013-08-12 23:49:00,59.2,57.0,29.85,South,188,0.0,0.0,93,0.00,,,0.00,weatherlink.com 1.10,2013-08-13 03:49:00,